Vorticity
4 3 3 3 3 3 5 7 6 5 4 6 6 6 7 9 8 9 8 8 6 9 8 8 6 7 4 -3 5 -0 2 14 11 8 8 6 6 3
7 6 3 3 3 3 3 4 5 5 5 7 7 7 7 7 6 8 8 8 9 11 8 8 6 6 5 2 0 -0 -9 4 10 16 6 6 1 5
7 10 4 4 5 4 2 2 3 4 4 6 6 6 9 9 8 8 7 7 8 8 12 9 5 8 1 6 -3 1 4 -5 -2 2 16 2 3 11
-2 11 10 8 6 6 7 4 3 3 4 3 2 6 7 9 10 9 7 8 8 10 7 10 6 5 5 -1 -1 5 3 1 -3 9 31 6 10 8
3 10 7 9 6 4 4 4 5 4 5 5 6 3 6 9 9 7 8 8 7 2 1 4 10 8 4 3 -0 6 2 12 10 32 28 6 7 0
-10 32 15 10 7 6 5 6 8 9 9 7 7 7 7 6 7 4 8 11 6 1 3 5 8 9 4 2 2 2 -0 2 19 14 19 3 6 7
-9 14 -2 27 12 13 14 9 6 8 13 12 6 8 10 8 5 5 4 8 5 7 5 5 7 9 6 6 4 5 -0 8 -4 24 15 9 7 8
7 16 -3 19 14 8 7 8 9 10 10 10 8 12 11 11 11 9 5 4 4 5 6 4 5 5 9 2 9 1 22 -11 11 25 8 10 7 9
7 6 18 3 -3 13 14 5 9 9 10 8 7 7 6 8 7 6 11 14 4 6 6 6 6 5 4 9 6 1 1 17 31 4 13 11 5 -16
9 -3 3 -3 7 20 -7 12 19 7 12 8 10 7 5 -4 -1 -5 -0 -2 6 12 14 12 0 11 2 3 4 2 -8 9 18 18 -0 3 9 10
-2 -1 -10 8 10 11 -0 0 4 -3 1 -6 1 -4 -2 1 6 -5 -4 58 18 85 33 20 25 -9 4 11 4 4 -3 -1 13 13 20 17 -2 3
9 9 -7 2 5 18 17 12 14 4 -1 1 0 5 5 5 8 10 10 9 -5 93 63 -24 19 19 8 25 7 -2 18 2 0 7 31 11 12 12
2 7 16 5 10 3 -1 14 6 -2 4 -7 -1 3 6 1 2 -7 -1 1 5 31 41 -5 19 -23 15 22 11 8 9 24 -17 6 14 15 -6 8
13 -0 0 21 17 20 13 16 13 8 9 17 9 9 12 18 13 7 7 15 4 60 -10 -59 6 -11 21 17 2 5 4 24 1 2 6 4 25 9
9 9 14 -2 7 24 25 21 8 2 4 3 1 10 15 12 17 13 22 1 18 14 7 10 12 -13 33 2 0 4 -8 -2 10 18 2 31 28 13
7 5 -22 6 9 6 -3 8 5 15 6 5 9 8 17 9 10 6 13 4 12 3 -24 41 -16 36 8 13 -7 10 10 12 21 15 21 -0 4 -5
-4 -9 -9 3 3 6 8 4 -3 4 1 17 14 5 13 15 8 5 6 10 6 2 -1 19 21 12 -4 4 4 3 8 8 11 4 38 -25 12 19
18 32 35 30 9 2 8 -2 -15 -17 8 8 18 -11 -6 14 17 5 10 2 35 39 -49 24 42 -15 -5 28 2 22 4 12 -0 25 9 -0 6 5
9 9 20 21 28 35 31 37 42 38 34 40 -0 25 19 10 6 0 13 -9 14 16 14 -7 69 -30 18 10 25 5 -3 30 38 21 6 -4 3 11
11 19 21 21 21 27 13 8 22 31 18 15 18 41 10 -3 1 -2 -1 10 -2 32 -13 51 9 36 22 2 2 19 14 3 -3 -3 7 12 13 12
12 16 19 22 29 24 18 -1 14 23 34 44 47 32 45 33 25 22 7 21 18 46 3 2 12 -13 29 -5 5 17 13 8 2 11 15 6 12 14
18 21 20 10 13 24 19 9 23 16 17 21 34 22 11 21 23 31 30 45 37 -9 23 23 30 20 3 23 31 23 6 8 7 9 6 9 7 5
8 19 25 21 26 24 7 11 18 20 15 15 21 27 17 26 10 27 4 38 23 29 -43 44 3 25 13 45 12 8 9 10 9 8 8 5 6 10
Height
5819 5819 5819 5820 5821 5821 5821 5819 5817 5820 5822 5822 5819 5818 5815 5811 5807 5805 5804 5801 5799 5797 5793 5790 5787 5784 5781 5778 5774 5768 5764 5758 5754 5749 5744 5739 5734 5729
5805 5805 5806 5806 5807 5808 5809 5809 5807 5806 5807 5812 5809 5807 5805 5802 5798 5795 5793 5791 5788 5786 5783 5780 5778 5775 5772 5768 5763 5758 5753 5748 5744 5739 5734 5730 5725 5721
5791 5791 5792 5792 5794 5795 5795 5796 5795 5794 5793 5799 5796 5795 5794 5792 5789 5786 5783 5780 5778 5777 5773 5770 5768 5765 5762 5758 5754 5749 5744 5739 5734 5729 5724 5720 5716 5711
5778 5778 5779 5779 5782 5781 5781 5782 5783 5782 5781 5782 5783 5782 5781 5780 5777 5775 5774 5770 5768 5766 5763 5760 5757 5753 5750 5748 5744 5740 5734 5729 5723 5717 5711 5709 5705 5701
5764 5766 5766 5765 5769 5769 5769 5768 5769 5769 5768 5767 5769 5768 5768 5767 5765 5763 5762 5759 5755 5752 5750 5748 5745 5741 5738 5736 5734 5730 5725 5719 5714 5705 5700 5698 5694 5689
5751 5752 5753 5752 5753 5754 5754 5754 5754 5755 5755 5755 5755 5753 5754 5752 5750 5750 5749 5745 5741 5738 5736 5734 5732 5728 5726 5724 5722 5720 5715 5709 5704 5697 5691 5688 5683 5678
5736 5738 5738 5737 5737 5737 5737 5738 5738 5739 5740 5740 5740 5740 5740 5739 5739 5737 5734 5731 5726 5725 5723 5720 5716 5714 5713 5712 5710 5707 5702 5697 5693 5688 5682 5677 5672 5668
5719 5721 5723 5722 5722 5722 5722 5722 5722 5724 5725 5726 5726 5726 5728 5728 5726 5724 5719 5714 5710 5712 5707 5702 5700 5701 5700 5699 5697 5693 5690 5685 5679 5676 5671 5666 5663 5657
5701 5704 5706 5708 5707 5707 5708 5708 5709 5708 5710 5711 5711 5712 5712 5713 5710 5707 5703 5698 5691 5694 5688 5685 5685 5684 5683 5683 5684 5681 5677 5672 5669 5663 5659 5654 5650 5647
5683 5685 5687 5689 5690 5690 5692 5694 5696 5697 5697 5696 5695 5697 5695 5696 5696 5694 5688 5676 5670 5666 5667 5666 5670 5668 5666 5667 5668 5667 5664 5659 5654 5650 5647 5641 5636 5632
5663 5665 5667 5670 5670 5671 5674 5678 5680 5685 5682 5681 5682 5684 5683 5680 5682 5678 5672 5633 5650 5633 5644 5642 5647 5650 5653 5651 5652 5651 5648 5645 5640 5636 5631 5626 5624 5620
5644 5646 5647 5650 5650 5651 5653 5656 5662 5667 5663 5664 5665 5667 5668 5667 5663 5663 5660 5650 5642 5628 5633 5627 5632 5636 5639 5638 5637 5636 5634 5630 5626 5621 5614 5612 5609 5605
5619 5623 5626 5628 5631 5631 5632 5636 5640 5644 5645 5646 5648 5649 5651 5651 5648 5645 5643 5640 5637 5634 5631 5626 5625 5624 5624 5624 5623 5621 5617 5612 5613 5609 5602 5598 5593 5589
5593 5597 5602 5606 5608 5610 5611 5614 5617 5621 5624 5627 5628 5629 5630 5632 5631 5627 5623 5621 5622 5621 5615 5612 5614 5613 5610 5610 5609 5607 5605 5601 5598 5596 5591 5585 5578 5575
5572 5575 5578 5583 5586 5589 5591 5594 5596 5599 5602 5606 5608 5610 5611 5612 5611 5609 5607 5607 5606 5604 5602 5599 5599 5598 5596 5594 5594 5591 5590 5588 5586 5581 5577 5570 5566 5563
5550 5554 5557 5560 5564 5567 5569 5572 5575 5578 5582 5586 5589 5591 5591 5592 5591 5591 5589 5589 5588 5590 5587 5585 5582 5581 5579 5578 5578 5576 5574 5572 5569 5565 5562 5557 5553 5550
5522 5529 5534 5536 5539 5542 5547 5551 5555 5556 5558 5563 5569 5571 5571 5573 5573 5573 5572 5572 5573 5573 5570 5568 5567 5564 5563 5561 5561 5560 5558 5555 5552 5549 5545 5542 5540 5536
5494 5502 5504 5510 5515 5519 5524 5527 5531 5536 5541 5542 5545 5549 5553 5553 5553 5554 5555 5556 5554 5553 5552 5550 5545 5548 5547 5544 5545 5543 5541 5539 5535 5532 5530 5528 5526 5522
5471 5476 5478 5482 5488 5491 5496 5499 5504 5507 5511 5516 5520 5526 5528 5531 5532 5532 5534 5538 5541 5540 5541 5535 5530 5530 5529 5530 5530 5529 5525 5521 5519 5517 5515 5515 5512 5506
5452 5457 5459 5464 5468 5473 5477 5480 5480 5483 5486 5488 5492 5497 5503 5507 5508 5513 5516 5519 5524 5524 5519 5521 5522 5520 5518 5517 5514 5511 5508 5507 5505 5503 5502 5499 5495 5491
5438 5440 5441 5446 5450 5453 5458 5461 5463 5464 5465 5464 5467 5472 5477 5482 5485 5491 5497 5502 5504 5506 5505 5505 5505 5506 5505 5501 5498 5495 5494 5493 5492 5491 5487 5484 5479 5476
5424 5425 5429 5433 5435 5438 5443 5447 5449 5449 5449 5450 5451 5455 5459 5462 5467 5471 5477 5482 5482 5487 5488 5488 5489 5489 5487 5485 5483 5480 5479 5478 5478 5475 5470 5468 5463 5459
5412 5413 5415 5418 5421 5426 5431 5435 5435 5436 5436 5437 5438 5441 5445 5448 5451 5456 5461 5463 5466 5467 5469 5471 5473 5473 5469 5468 5468 5469 5467 5466 5464 5458 5454 5451 5448 5445